Home > Weather > Lund > Past weeks

Flag for Sweden Past Weather in Lund, Sweden — Yesterday and Last 2 Weeks

Now
61 °F

Fog.


Feels Like: 61 °F
Forecast: 60 / 77 °F
Wind: 8 mph from Southeast

Location: Malmo / Sturup

Current Time: Aug 25, 2016 at 1:26:30 AM

Latest Report: Aug 25, 2016 at 12:50 AM


Visibility: 3 mi

Pressure: 30.24 "Hg

Humidity: 100%

Dew Point: 61 °F

Location of LundLocation

Past Weather in Lund — Graph

°F

Lund Temperature Yesterday

Maximum temperature yesterday: 73 °F (at 2:20 PM)
Minimum temperature yesterday: 48 °F (at 2:50 AM)
Average temperature yesterday: 61 °F

High & Low Weather Summary for the Past Weeks

 TemperatureHumidityPressure
High73 °F (Aug 24, 2:20 PM)100% (Aug 12, 1:20 AM)30.33 "Hg (Aug 12, 1:20 AM)
Low45 °F (Aug 10, 11:50 PM)42% (Aug 11, 4:50 PM)29.77 "Hg (Aug 18, 9:20 AM)
Average59 °F83%30.02 "Hg
* Reported Aug 10 12:20 AM — Aug 25 12:20 AM, Lund, Weather by CustomWeather, © 2016

Note: Actual official high and low records may vary slightly from our data, if they occured in-between our weather recording intervals... More about our weather records

Advertising

Lund Weather History for the Previous 24 Hours

Scroll right to see more
 ConditionsComfort  
Time TempWeatherWind HumidityBarometerVisibility
12:20 AM
Thu, Aug 25
61 °FFog.7 mph100%30.24 "Hg3 mi
11:50 PM
Wed, Aug 24
61 °FFog.7 mph100%30.24 "Hg4 mi
11:20 PM61 °FFog.8 mph100%30.24 "Hg4 mi
10:50 PM61 °FClear.7 mph94%30.27 "Hg10 mi
10:20 PM61 °FClear.7 mph94%30.27 "Hg10 mi
9:50 PM61 °FClear.6 mph94%30.27 "Hg10 mi
9:20 PM63 °FClear.5 mph88%30.27 "Hg10 mi
8:50 PM63 °FSunny.5 mph88%30.27 "Hg10 mi
8:20 PM63 °FSunny.6 mph83%30.27 "Hg10 mi
7:50 PM64 °FSunny.6 mph78%30.27 "Hg10 mi
7:20 PM66 °FSunny.7 mph68%30.27 "Hg10 mi
6:50 PM68 °FSunny.9 mph64%30.27 "Hg10 mi
6:20 PM70 °FSunny.8 mph64%30.27 "Hg10 mi
5:50 PM70 °FSunny.9 mph64%30.27 "Hg10 mi
5:20 PM72 °FPassing clouds.7 mph61%30.30 "HgN/A
4:50 PM72 °FSunny.7 mph61%30.30 "Hg10 mi
4:20 PM72 °FSunny.8 mph65%30.30 "Hg10 mi
3:50 PM72 °FSunny.7 mph61%30.30 "Hg10 mi
3:20 PM72 °FPassing clouds.7 mph65%30.30 "HgN/A
2:50 PM73 °FPassing clouds.6 mph61%30.30 "HgN/A
2:20 PM73 °FPassing clouds.7 mph61%30.30 "HgN/A
1:50 PM70 °FSunny.6 mph69%30.30 "Hg10 mi
1:20 PM70 °FPassing clouds.5 mph64%30.30 "HgN/A
12:50 PM70 °FSunny.5 mph64%30.30 "Hg10 mi
12:20 PM70 °FScattered clouds.5 mph64%30.33 "HgN/A
11:50 AM70 °FPassing clouds.5 mph64%30.33 "HgN/A
11:20 AM70 °FSunny.3 mph64%30.33 "Hg10 mi
10:50 AM70 °FPassing clouds.3 mph69%30.33 "HgN/A
10:20 AM68 °FSunny.3 mph69%30.33 "Hg10 mi
9:50 AM66 °FSunny.No wind73%30.33 "Hg10 mi
9:20 AM66 °FSunny.1 mph73%30.33 "Hg10 mi
8:50 AM64 °FSunny.2 mph83%30.33 "Hg10 mi
8:20 AM61 °FSunny.2 mph88%30.33 "Hg10 mi
7:50 AM57 °FSunny.2 mph100%30.33 "Hg10 mi
7:20 AM54 °FSunny.No wind94%30.33 "Hg10 mi
6:50 AM48 °FClear.No wind100%30.30 "Hg10 mi
6:20 AM48 °FLight fog.No wind94%30.30 "HgN/A
5:50 AM48 °FLight fog.No wind100%30.30 "HgN/A
5:20 AM48 °FLight fog.2 mph100%30.30 "Hg1 mi
4:50 AM48 °FLight fog.No wind100%30.30 "HgN/A
4:20 AM48 °FLight fog.No wind100%30.30 "HgN/A
3:50 AM48 °FLight fog.No wind100%30.30 "HgN/A
3:20 AM50 °FLight fog.No wind94%30.30 "HgN/A
2:50 AM48 °FLight fog.No wind100%30.30 "HgN/A
2:20 AM50 °FFog.No wind100%30.30 "Hg3 mi
1:50 AM50 °FClear.No wind100%30.30 "Hg10 mi
1:20 AM52 °FClear.1 mph94%30.30 "Hg10 mi
Weather by CustomWeather, © 2016

See weather overviewHow to use our weather pages